Temperature
8 8 8 8 7 7 7 7 7 7 7 7 7 7 7 6 6 6 6 6 6 6 6 5 5 5 5 4 4 4 4 3 3 3 3 4 3 3 3 3 3 3 3
7 7 7 7 7 7 7 7 7 7 7 6 6 6 6 6 6 6 6 6 5 5 5 5 5 4 4 4 4 3 3 3 2 2 3 3 3 3 3 3 2 2 2
6 6 6 6 6 6 6 6 6 6 6 6 6 6 6 6 5 5 5 5 5 5 4 4 4 4 3 3 3 3 3 2 2 2 2 2 2 2 2 2 2 2 2
6 6 6 6 6 6 6 6 6 5 5 5 5 5 5 5 5 5 4 4 4 4 4 4 3 3 3 3 3 2 2 2 2 2 2 2 2 2 1 1 2 2 2
5 5 5 5 5 5 5 5 5 5 5 5 5 5 4 4 4 4 4 4 4 3 3 3 3 3 3 2 2 2 2 2 2 1 1 1 1 1 1 1 1 1 1
4 4 4 4 4 4 4 4 4 4 4 4 4 4 4 4 4 4 3 3 3 3 3 3 2 2 2 2 2 2 2 1 1 1 0 0 0 0 0 0 -0 -0 -0
3 4 4 4 4 4 4 4 4 4 4 4 4 3 3 3 3 3 3 3 2 2 2 2 2 2 1 1 1 1 1 1 1 0 0 -0 -0 -0 -0 -0 -1 -1 -1
3 3 3 3 3 3 3 3 3 3 3 3 3 3 3 3 3 2 2 2 2 2 2 1 1 1 1 1 1 1 1 1 0 -0 -0 -0 -0 -1 -1 -1 -1 -1 -1
2 2 2 2 2 2 2 2 2 2 2 2 2 2 2 2 2 2 2 1 1 1 1 1 0 0 0 0 0 0 0 0 -0 -0 -0 -1 -1 -1 -1 -1 -1 -1 -2
1 1 2 2 2 2 2 2 2 2 1 1 1 1 1 1 1 1 1 1 0 0 0 -0 -0 -0 -0 -0 -0 -0 -0 -0 -1 -1 -1 -1 -1 -1 -1 -2 -2 -2 -2
1 1 1 1 1 1 1 1 1 1 1 0 1 1 1 1 1 0 0 -0 -0 -0 -0 -1 -1 -1 -1 -1 -1 -1 -1 -1 -1 -1 -1 -1 -2 -2 -2 -2 -2 -2 -3
0 0 0 0 0 0 0 0 0 0 0 -0 -0 -0 -0 -0 -0 -0 -1 -1 -1 -1 -1 -1 -1 -1 -1 -1 -1 -1 -2 -2 -2 -2 -2 -2 -2 -2 -2 -2 -2 -3 -3
-0 -0 -0 -0 -0 -0 -0 -0 -0 -1 -1 -1 -1 -1 -1 -1 -1 -1 -1 -1 -1 -2 -2 -1 -1 -1 -1 -1 -2 -2 -2 -2 -2 -2 -2 -2 -2 -2 -2 -3 -3 -3 -3
-1 -1 -1 -1 -1 -1 -1 -1 -1 -1 -1 -1 -1 -1 -1 -2 -2 -2 -2 -2 -2 -2 -2 -2 -2 -2 -2 -2 -2 -2 -2 -3 -3 -3 -3 -3 -3 -3 -3 -3 -3 -3 -3
-2 -2 -2 -2 -2 -2 -2 -2 -2 -2 -2 -2 -2 -2 -2 -2 -2 -2 -2 -2 -2 -2 -2 -3 -3 -3 -3 -3 -3 -3 -3 -3 -3 -3 -3 -3 -3 -3 -3 -3 -3 -3 -4
-2 -2 -2 -2 -2 -3 -2 -3 -2 -2 -2 -2 -2 -2 -2 -3 -3 -3 -3 -3 -3 -3 -3 -3 -3 -3 -3 -3 -3 -3 -3 -3 -3 -4 -4 -4 -4 -4 -4 -4 -4 -4 -4
-3 -3 -3 -3 -3 -3 -3 -3 -3 -3 -3 -3 -3 -3 -3 -3 -3 -3 -3 -3 -3 -3 -3 -3 -4 -4 -4 -4 -4 -4 -4 -4 -4 -4 -4 -4 -4 -4 -4 -4 -4 -4 -5
-3 -3 -3 -3 -3 -3 -3 -3 -3 -3 -3 -3 -3 -3 -3 -3 -3 -3 -3 -3 -4 -4 -4 -4 -4 -4 -4 -4 -4 -4 -4 -4 -4 -4 -4 -4 -4 -4 -4 -4 -5 -5 -5
-4 -4 -4 -4 -4 -4 -4 -4 -4 -4 -4 -4 -4 -4 -4 -4 -4 -4 -4 -4 -4 -4 -4 -4 -4 -4 -4 -4 -5 -5 -4 -5 -5 -5 -4 -4 -5 -5 -5 -5 -5 -5 -5
-4 -4 -4 -4 -4 -4 -4 -4 -4 -4 -4 -4 -4 -4 -4 -4 -4 -4 -4 -4 -5 -5 -5 -5 -5 -5 -5 -5 -5 -5 -5 -5 -5 -5 -5 -5 -5 -5 -5 -5 -5 -6 -6
-5 -5 -4 -4 -4 -4 -4 -4 -5 -5 -4 -4 -5 -5 -5 -5 -5 -5 -5 -5 -5 -5 -5 -5 -5 -5 -5 -5 -5 -5 -5 -5 -5 -5 -5 -5 -5 -5 -5 -6 -6 -6 -6
-5 -5 -5 -5 -5 -5 -5 -5 -5 -5 -5 -5 -5 -5 -5 -5 -5 -5 -5 -5 -5 -5 -5 -5 -5 -5 -5 -5 -5 -5 -5 -5 -5 -5 -5 -5 -5 -6 -6 -6 -6 -6 -6
-5 -5 -5 -5 -5 -5 -5 -5 -5 -5 -5 -5 -5 -5 -5 -5 -6 -6 -6 -6 -6 -6 -6 -6 -6 -6 -6 -6 -6 -6 -6 -6 -6 -6 -6 -6 -6 -6 -6 -6 -6 -6 -6
-6 -6 -6 -6 -6 -6 -6 -6 -6 -6 -6 -6 -6 -6 -6 -6 -6 -6 -6 -6 -6 -6 -6 -6 -6 -6 -6 -6 -6 -6 -6 -6 -6 -6 -6 -6 -6 -6 -6 -6 -6 -6 -6
-6 -6 -6 -6 -6 -6 -6 -6 -6 -6 -6 -6 -6 -6 -6 -6 -6 -6 -6 -6 -6 -7 -7 -6 -6 -6 -6 -6 -6 -6 -6 -6 -6 -6 -6 -6 -6 -6 -6 -6 -6 -6 -6
-6 -7 -7 -7 -7 -7 -6 -6 -6 -6 -7 -7 -6 -6 -6 -6 -6 -7 -7 -7 -7 -7 -7 -7 -6 -6 -6 -6 -6 -6 -6 -6 -6 -6 -6 -6 -6 -6 -6 -6 -6 -6 -6
Wind_Speed
5 5 6 5 5 5 5 5 5 5 5 5 4 4 3 3 2 2 2 2 2 3 3 3 4 4 3 4 4 4 5 5 7 7 5 6 7 7 7 9 9 9 9
5 5 5 5 5 5 5 5 5 5 4 4 4 4 3 3 3 3 3 3 3 4 4 4 4 3 5 4 4 5 5 6 7 8 7 6 7 7 8 8 8 9 10
4 5 5 5 5 5 5 4 4 4 4 4 4 4 3 3 3 3 3 3 4 3 4 4 4 5 5 4 5 5 5 6 6 7 7 6 6 6 7 7 8 8 9
4 5 5 4 4 4 4 4 4 4 4 4 4 3 3 3 3 3 3 3 3 3 3 4 5 5 5 5 5 6 5 6 6 6 6 6 6 6 6 7 8 7 8
4 4 4 4 4 4 4 4 4 4 4 3 3 3 3 3 3 3 3 3 3 3 4 4 4 5 6 5 5 5 5 5 5 6 6 6 6 6 6 6 8 8 8
4 4 4 4 4 4 3 3 4 4 3 3 3 3 3 2 3 3 3 3 4 4 3 4 4 4 5 6 7 7 7 6 6 6 6 7 8 7 7 7 7 8 7
4 4 4 4 4 3 3 3 3 3 3 3 3 3 3 2 3 3 3 3 4 3 3 4 3 4 5 4 6 6 6 7 8 7 8 8 8 7 7 8 8 8 9
3 3 3 4 3 3 4 4 3 3 3 3 3 2 2 2 2 3 3 3 3 3 3 4 4 4 4 5 5 5 5 5 6 6 7 7 7 7 7 7 8 9 9
3 3 3 3 3 3 3 4 3 3 2 2 2 2 2 2 2 2 2 2 2 3 3 4 4 4 5 5 5 5 6 6 5 7 8 8 8 8 7 5 6 7 7
3 3 3 3 3 3 3 3 2 3 3 2 2 2 2 2 2 3 2 2 2 2 3 3 4 5 6 6 5 5 6 6 6 6 6 6 6 6 6 5 5 6 6
2 2 2 3 3 3 2 2 2 3 3 2 2 1 1 1 2 2 3 2 2 3 3 3 3 5 6 7 6 6 7 7 6 6 6 5 5 4 5 5 5 5 6
2 2 2 2 2 2 3 2 2 3 3 2 2 1 1 1 1 2 3 3 3 3 3 3 4 6 7 7 6 6 8 7 5 5 5 5 4 5 5 6 7 7 7
2 2 2 2 2 2 3 3 3 3 2 2 2 2 1 1 1 2 3 3 3 3 3 5 6 7 7 5 6 7 6 5 4 4 5 5 5 5 5 6 6 7 7
2 2 2 2 2 2 2 2 2 3 2 2 2 1 1 1 1 1 2 2 3 3 3 4 5 5 4 5 5 4 4 4 4 4 5 5 4 4 5 5 5 6 5
1 1 2 2 2 2 1 1 2 2 2 2 2 2 2 2 2 4 3 3 3 3 3 3 3 3 3 3 4 4 4 4 4 4 4 4 5 5 5 5 5 5 5
1 1 1 1 2 2 2 1 1 1 1 1 2 2 2 3 4 4 4 5 4 4 3 2 2 3 3 4 4 4 4 4 4 4 4 4 5 5 5 5 5 5 6
1 1 1 1 2 2 2 2 2 1 1 0 1 1 2 3 3 3 4 4 3 3 2 2 3 3 3 4 4 4 4 4 4 4 4 4 4 4 5 5 5 5 5
1 1 1 2 2 2 2 2 2 2 1 0 0 1 2 2 2 2 3 3 2 2 2 2 3 3 3 4 4 4 4 4 4 4 4 4 4 4 4 5 5 5 5
1 1 1 1 2 2 2 2 2 1 1 0 0 1 2 2 2 2 2 1 2 2 2 3 3 3 3 4 4 4 4 4 4 4 4 4 4 4 4 4 5 6 6
0 0 1 1 1 2 2 2 2 1 1 0 0 1 2 2 2 2 2 2 2 2 3 3 3 3 4 4 4 4 4 4 4 4 4 4 4 4 4 5 5 5 5
1 1 1 1 1 1 2 2 2 1 1 1 1 1 2 1 1 2 2 2 2 2 3 3 3 4 4 4 4 4 5 4 4 4 4 4 4 4 4 4 4 5 5
1 1 1 1 1 1 1 1 1 1 1 1 1 1 2 1 1 2 2 2 2 3 3 3 3 4 4 4 4 4 5 5 4 4 4 4 4 4 4 4 4 4 5
1 1 1 1 1 2 1 1 1 1 1 1 1 1 1 1 2 2 2 3 3 3 4 4 4 4 5 5 5 5 5 5 5 5 4 4 4 4 4 4 5 5 5
2 2 2 2 2 2 2 2 1 1 1 2 2 2 2 2 2 2 3 3 3 4 4 4 5 5 6 6 6 6 6 6 6 6 5 5 4 4 4 4 4 5 5
2 2 2 2 2 2 2 2 2 2 2 2 2 2 2 2 2 2 3 3 4 4 5 5 5 5 6 7 7 7 7 8 8 6 5 4 4 4 4 4 4 4 5
2 3 2 2 2 2 2 2 2 2 2 2 2 2 2 2 3 3 3 3 3 4 5 5 6 7 7 7 7 7 8 8 8 7 5 4 4 3 4 3 4 4 4
Wind_Direction
180 177 169 166 166 169 170 168 166 165 164 164 163 166 172 181 189 206 217 214 227 235 241 251 260 264 264 266 264 258 262 267 274 285 289 297 298 301 309 309 309 307 305
181 177 171 166 167 170 169 168 168 170 168 168 169 174 182 190 197 211 222 223 236 244 247 254 263 266 266 267 264 260 263 267 272 282 292 295 295 300 305 306 310 307 305
179 173 171 168 170 173 171 170 169 171 171 172 178 183 192 200 209 218 225 229 241 252 257 255 260 265 267 270 266 262 263 266 268 275 286 293 294 301 305 306 308 310 310
180 178 178 177 177 177 171 170 171 176 178 180 185 188 195 203 209 216 229 243 251 258 265 266 264 263 267 272 268 263 267 270 272 275 283 291 296 301 304 310 311 313 313
183 180 182 178 173 169 168 169 171 178 183 182 183 189 195 203 210 222 236 246 254 261 264 271 275 279 284 280 276 270 269 271 275 278 284 292 296 305 307 309 306 311 308
190 186 176 174 173 168 167 170 171 176 178 180 187 192 203 210 216 232 249 250 252 256 270 280 285 280 281 282 283 276 273 273 278 281 284 285 293 299 304 303 306 310 306
194 186 178 176 177 173 169 171 177 181 180 186 194 198 209 217 219 234 250 260 257 261 269 277 284 287 291 289 286 281 275 277 279 281 279 284 291 297 299 299 299 300 297
187 184 183 183 183 179 176 179 181 183 186 192 198 202 209 221 230 241 251 258 259 267 271 271 276 283 290 292 292 292 292 291 288 281 279 284 290 294 293 291 293 295 295
184 188 193 190 186 186 185 187 185 178 181 193 197 200 206 220 229 233 253 266 267 280 287 282 286 285 287 293 292 291 294 297 302 293 294 293 297 301 301 295 296 300 301
196 193 194 193 191 189 191 190 183 178 182 189 197 210 218 228 236 239 251 256 266 284 292 291 289 294 298 297 289 286 287 293 298 298 294 294 296 299 298 288 288 291 297
203 184 185 189 192 189 186 183 171 170 171 183 187 208 237 251 254 261 269 263 265 276 282 287 290 295 299 303 301 293 292 296 292 291 292 295 298 301 304 304 296 284 285
178 171 173 184 188 177 169 172 170 166 170 185 184 193 234 256 283 291 296 295 288 275 277 282 290 296 301 303 301 299 300 298 290 289 290 295 300 301 305 305 299 292 285
161 166 166 168 176 174 172 173 175 177 178 188 194 201 223 257 286 297 304 300 295 292 287 290 297 299 302 301 300 300 298 294 290 290 294 298 302 302 305 304 303 301 298
156 161 161 159 162 166 173 182 181 184 185 191 200 217 241 272 294 310 313 313 306 306 301 297 298 300 303 302 305 305 303 299 295 294 296 299 302 303 301 305 306 309 307
159 163 157 160 163 160 159 176 194 209 205 200 212 230 243 269 289 302 302 301 305 301 307 304 309 313 317 319 318 318 316 311 306 304 300 301 302 301 300 305 305 307 303
154 162 167 164 164 163 151 127 96 168 154 222 252 267 272 276 295 300 302 301 299 290 296 295 303 309 312 314 312 312 312 313 308 302 296 295 297 298 301 305 307 306 305
187 195 187 179 175 174 170 161 153 130 143 176 262 279 281 291 298 301 306 304 298 298 300 304 303 305 308 309 308 308 311 314 310 301 297 298 298 297 300 304 306 306 305
189 188 189 186 184 183 182 182 182 183 186 210 357 320 313 304 302 302 306 310 306 325 317 305 303 305 306 307 308 310 312 316 314 307 303 303 300 299 301 304 306 307 307
183 188 179 174 180 183 178 176 173 172 177 198 12 7 4 351 348 340 330 319 309 310 314 308 306 306 308 308 308 310 312 311 312 311 309 309 307 307 306 305 305 306 306
173 146 170 165 168 163 159 160 161 164 172 179 350 340 345 349 347 348 348 341 319 313 313 311 311 310 309 305 305 307 308 307 307 306 307 308 309 307 305 304 306 307 307
162 159 151 158 161 162 168 173 172 178 196 218 282 316 330 327 322 319 318 318 313 309 308 308 309 310 308 305 304 306 305 303 303 304 305 308 310 307 302 301 303 304 306
182 185 184 171 170 171 176 181 175 186 205 230 276 307 320 309 294 295 302 306 306 302 300 298 299 302 302 301 300 301 302 304 306 305 307 308 306 305 304 305 309 312 313
194 194 193 185 181 176 178 178 183 199 219 243 262 284 298 293 287 289 295 299 300 300 302 299 297 300 304 304 300 296 296 301 305 305 304 303 303 305 307 309 314 316 318
203 203 203 198 193 196 191 194 205 216 229 246 259 271 281 283 281 283 287 289 293 296 299 300 295 295 300 306 305 303 301 303 304 299 294 292 298 303 306 308 312 315 316
208 207 208 209 206 206 206 210 216 224 236 247 256 263 268 273 277 281 285 287 293 293 297 299 298 299 300 303 306 309 313 311 309 306 298 296 300 304 307 309 312 317 319
214 215 216 215 213 212 215 219 223 229 239 249 256 260 263 268 272 275 278 282 290 293 296 297 297 301 304 305 305 310 315 315 313 310 306 301 300 304 308 308 310 313 317
Height
1506 1508 1510 1512 1513 1515 1516 1518 1519 1520 1521 1522 1523 1524 1524 1525 1525 1525 1525 1524 1524 1524 1524 1523 1522 1521 1520 1519 1518 1517 1515 1514 1511 1507 1506 1504 1502 1500 1497 1495 1492 1489 1486
1503 1505 1507 1509 1510 1512 1513 1514 1515 1517 1518 1519 1519 1520 1521 1521 1522 1522 1522 1521 1521 1520 1520 1519 1518 1517 1516 1515 1514 1512 1511 1510 1508 1504 1501 1500 1498 1496 1493 1491 1488 1485 1482
1500 1501 1504 1505 1507 1508 1509 1511 1512 1513 1514 1516 1516 1517 1517 1518 1518 1518 1518 1518 1517 1517 1516 1515 1514 1513 1512 1511 1509 1508 1507 1506 1504 1501 1498 1496 1494 1492 1489 1487 1484 1481 1478
1496 1498 1500 1502 1503 1504 1506 1507 1508 1510 1511 1512 1513 1513 1514 1514 1514 1515 1514 1514 1514 1513 1512 1511 1510 1509 1508 1507 1505 1504 1503 1502 1500 1497 1494 1492 1489 1487 1485 1482 1479 1476 1473
1493 1495 1496 1498 1500 1501 1502 1503 1505 1506 1507 1508 1509 1509 1510 1510 1511 1511 1510 1510 1510 1509 1508 1507 1506 1505 1504 1503 1501 1500 1499 1497 1496 1493 1491 1488 1486 1483 1482 1478 1475 1472 1469
1490 1491 1493 1495 1496 1497 1498 1500 1501 1502 1503 1504 1505 1506 1506 1507 1507 1507 1507 1506 1506 1505 1504 1503 1502 1501 1500 1498 1497 1496 1495 1494 1492 1490 1487 1485 1482 1480 1478 1475 1472 1469 1465
1486 1488 1489 1491 1492 1493 1495 1496 1497 1498 1500 1501 1502 1502 1503 1503 1503 1504 1503 1503 1502 1501 1500 1499 1498 1497 1496 1494 1493 1492 1491 1490 1489 1487 1484 1481 1479 1477 1474 1472 1469 1466 1463
1483 1484 1486 1487 1489 1490 1491 1493 1494 1495 1496 1497 1498 1499 1499 1499 1500 1500 1500 1499 1499 1498 1497 1496 1495 1493 1492 1491 1489 1488 1486 1485 1484 1482 1480 1478 1475 1473 1471 1469 1466 1463 1459
1480 1481 1483 1484 1485 1487 1488 1489 1491 1492 1493 1494 1495 1495 1496 1496 1496 1496 1496 1495 1495 1494 1493 1492 1491 1490 1489 1488 1486 1484 1482 1481 1479 1478 1476 1474 1471 1469 1467 1465 1462 1459 1455
1478 1479 1480 1482 1483 1484 1485 1486 1487 1489 1490 1491 1491 1492 1493 1493 1493 1493 1492 1492 1491 1490 1490 1489 1488 1487 1486 1484 1483 1481 1479 1477 1475 1473 1471 1469 1467 1465 1463 1462 1459 1456 1452
1475 1476 1478 1479 1480 1481 1482 1483 1484 1485 1487 1488 1488 1489 1489 1489 1489 1489 1489 1489 1488 1487 1486 1486 1485 1484 1482 1481 1479 1478 1476 1474 1472 1469 1467 1465 1463 1461 1459 1457 1455 1453 1449
1473 1474 1475 1476 1477 1478 1479 1480 1482 1483 1484 1484 1485 1485 1486 1486 1486 1486 1486 1486 1485 1485 1484 1483 1482 1480 1479 1477 1476 1474 1472 1470 1468 1466 1464 1461 1459 1457 1455 1453 1451 1449 1446
1470 1471 1472 1473 1474 1475 1477 1478 1479 1480 1481 1481 1482 1482 1483 1483 1483 1483 1483 1483 1482 1482 1480 1479 1478 1477 1475 1473 1472 1470 1468 1466 1464 1462 1460 1458 1456 1454 1452 1450 1447 1445 1442
1468 1468 1469 1470 1471 1473 1474 1475 1476 1477 1478 1478 1479 1479 1480 1480 1480 1480 1480 1480 1479 1478 1477 1476 1475 1473 1471 1470 1468 1466 1464 1463 1461 1459 1457 1455 1453 1451 1449 1446 1444 1441 1438
1466 1466 1467 1468 1469 1470 1471 1473 1474 1474 1475 1476 1476 1477 1477 1477 1478 1478 1478 1477 1476 1475 1474 1473 1471 1470 1468 1466 1465 1463 1461 1460 1457 1456 1454 1452 1450 1448 1446 1444 1441 1438 1435
1464 1464 1465 1466 1467 1468 1469 1470 1471 1472 1473 1473 1474 1475 1474 1475 1475 1475 1475 1475 1474 1473 1472 1470 1469 1467 1465 1463 1462 1460 1458 1456 1455 1453 1451 1449 1447 1445 1443 1441 1438 1435 1432
1462 1463 1463 1464 1465 1466 1467 1468 1469 1470 1470 1471 1472 1472 1472 1472 1472 1472 1472 1472 1471 1470 1469 1467 1466 1464 1463 1461 1460 1458 1456 1454 1452 1450 1448 1446 1444 1442 1440 1438 1435 1433 1430
1461 1461 1462 1462 1463 1464 1465 1466 1467 1467 1468 1468 1469 1470 1469 1469 1469 1469 1469 1469 1468 1467 1466 1465 1463 1462 1460 1459 1457 1455 1453 1451 1449 1447 1446 1444 1442 1440 1438 1435 1433 1430 1428
1460 1460 1460 1461 1462 1462 1463 1464 1465 1465 1466 1466 1466 1467 1467 1467 1467 1467 1466 1466 1465 1464 1463 1462 1461 1459 1458 1457 1455 1453 1451 1449 1447 1445 1443 1442 1440 1438 1436 1433 1431 1428 1426
1459 1459 1459 1459 1460 1461 1461 1462 1462 1463 1464 1464 1464 1464 1465 1464 1464 1464 1464 1463 1462 1461 1460 1459 1458 1457 1456 1454 1453 1451 1449 1447 1445 1443 1441 1440 1438 1436 1434 1432 1429 1427 1424
1457 1457 1458 1458 1458 1459 1460 1460 1460 1461 1462 1462 1462 1463 1462 1462 1462 1462 1461 1461 1460 1459 1458 1457 1456 1455 1453 1452 1450 1449 1447 1445 1443 1442 1440 1438 1436 1434 1432 1430 1428 1425 1423
1456 1456 1456 1456 1457 1457 1458 1458 1459 1459 1459 1460 1460 1460 1460 1460 1460 1459 1459 1458 1458 1457 1456 1454 1453 1452 1451 1450 1448 1447 1445 1443 1442 1440 1438 1437 1435 1433 1431 1429 1427 1424 1422
1454 1454 1454 1454 1455 1455 1456 1456 1457 1457 1457 1458 1458 1458 1458 1457 1457 1457 1456 1455 1455 1454 1453 1452 1451 1450 1449 1448 1446 1445 1443 1442 1440 1439 1437 1435 1433 1432 1430 1428 1426 1423 1421
1452 1452 1452 1452 1453 1453 1454 1454 1455 1455 1455 1455 1456 1455 1455 1455 1455 1454 1453 1453 1452 1451 1450 1450 1449 1448 1447 1445 1444 1443 1441 1440 1439 1437 1436 1434 1432 1430 1429 1427 1425 1423 1421
1449 1450 1450 1450 1450 1451 1451 1452 1452 1453 1453 1453 1453 1453 1453 1453 1452 1451 1451 1450 1449 1449 1448 1447 1446 1445 1444 1443 1442 1441 1439 1438 1437 1436 1434 1433 1431 1429 1428 1426 1424 1422 1420
1447 1447 1447 1448 1448 1449 1449 1450 1450 1450 1451 1451 1451 1451 1450 1450 1449 1449 1448 1447 1447 1446 1445 1444 1443 1443 1441 1440 1439 1438 1437 1436 1435 1434 1433 1431 1430 1429 1427 1425 1424 1422 1420